Flag for Jordan Weather past 2 weeks in Zarqa, Jordan

Now
86 °F

Haze.


Feels Like: 83 °F
Forecast: 61 / 80 °F
Wind: No wind

Location: Amman Airport

Current Time: May 28, 2015 at 5:54:24 AM

Latest Report: May 28, 2015 at 5:00 AM


Visibility: 2 mi

Pressure: 29.86 "Hg

Humidity: 19%

Dew point: 39 °F

Location of ZarqaLocation

Historic Weather in Zarqa — Graph

°F

Zarqa temperature yesterday

Maximum temperature yesterday: 97 °F (at 2:00 PM)
Minimum temperature yesterday: 72 °F (at 2:00 AM)
Average temperature yesterday: 86 °F

Past Weeks' High & Low Weather Summary

 TemperatureHumidityPressure
High97 °F (May 19, 3:00 PM)78% (May 23, 10:00 AM)30.24 "Hg (May 23, 10:00 AM)
Low55 °F (May 15, 4:00 AM)8% (May 18, 1:00 PM)29.86 "Hg (May 19, 4:00 PM)
Average76 °F31%30.01 "Hg
* Reported May 13 4:00 AM — May 28 4:00 AM, Zarqa, Weather by CustomWeather, © 2015

Note: Actual official high and low records may vary slightly from our data, if they occured in-between our weather recording intervals... More about our weather records

Advertising

Zarqa weather history for previous 24 hours

 ConditionsComfort  
Time TempWeatherWind HumidityBarometerVisibility
4:00 AM
Thu, May 28
86 °FHaze.5 mph18%29.89 "Hg2 mi
3:00 AM86 °FHaze.14 mph18%29.89 "Hg2 mi
2:00 AM88 °FHaze.9 mph17%29.86 "Hg2 mi
1:00 AM88 °FHaze.7 mph17%29.89 "Hg2 mi
12:00 AM90 °FHaze.5 mph16%29.89 "Hg2 mi
11:00 PM
Wed, May 27
91 °FHaze.7 mph14%29.92 "Hg2 mi
10:00 PM90 °FClear.23 mph16%29.92 "Hg1 mi
9:00 PM91 °FHaze.No wind13%29.89 "Hg2 mi
8:00 PM93 °FHaze.3 mph12%29.89 "Hg2 mi
7:00 PM95 °FHaze.6 mph11%29.89 "Hg2 mi
6:00 PM97 °FHaze.10 mph11%29.89 "Hg2 mi
5:00 PM97 °FHaze.12 mph13%29.92 "Hg2 mi
4:00 PM97 °FHaze.12 mph13%29.92 "Hg3 mi
3:00 PM97 °FHaze.14 mph13%29.92 "Hg3 mi
2:00 PM97 °FHaze.8 mph11%29.95 "Hg3 mi
1:00 PM95 °FHaze.14 mph13%29.95 "Hg3 mi
12:00 PM91 °FHaze.9 mph15%30.01 "Hg3 mi
11:00 AM90 °FHaze.12 mph13%30.01 "Hg3 mi
10:00 AM86 °FHaze.12 mph12%30.01 "Hg2 mi
9:00 AM82 °FHaze.7 mph23%30.01 "Hg2 mi
8:00 AM81 °FHaze.6 mph15%29.98 "Hg2 mi
7:00 AM73 °FHaze.No wind23%29.98 "Hg1 mi
6:00 AM73 °FHaze.No wind23%29.98 "Hg1 mi
5:00 AM73 °FHaze.No wind23%29.98 "Hg3 mi
Weather by CustomWeather, © 2015

See weather overviewHow to use our weather pages